Simultaneous Nadir Overpasses (SNOs) Predictions

Prediction of SNOs between FY3D and NOAA-19 Satellite Orbit:

Table of predicted SNOs for the next 14.0 days since TLE Epoch: 10/5/2019
Index Date (FY3D) Time (FY3D) Lat,Lon (FY3D) SZA (FY3D ) Date (NOAA-19) Time (NOAA-19) Lat,Lon (NOAA-19) SZA (NOAA-19 ) Distance(km) Time Diff (sec)
1 10/12/2019 17:05:41 -79.88, 67.12 91.08 10/12/2019 17:04:35 -79.89, 67.00 91.03 2.68 66
2 10/12/2019 17:56:26 79.89,-125.68 88.96 10/12/2019 17:55:31 79.90,-125.64 88.98 1.23 55
3 10/12/2019 18:47:11 -79.90, 41.50 91.01 10/12/2019 18:46:36 -79.88, 41.42 91.01 2.62 35
4 10/12/2019 19:37:56 79.91,-151.31 89.03 10/12/2019 19:37:32 79.89,-151.22 89.01 3.18 24
5 10/12/2019 20:28:40 -79.90, 16.16 90.99 10/12/2019 20:28:36 -79.90, 16.15 90.99 0.38 4
6 10/12/2019 21:19:25 79.91,-176.64 89.05 10/12/2019 21:19:32 79.91,-176.49 89.03 2.81 7
7 10/12/2019 22:10:09 -79.89, -9.17 90.97 10/12/2019 22:10:36 -79.92, -9.12 90.97 2.97 27
8 10/12/2019 23:00:54 79.91, 158.03 89.07 10/12/2019 23:01:33 79.90, 157.92 89.06 2.13 39
9 10/12/2019 23:51:39 -79.92, -34.79 90.90 10/12/2019 23:52:37 -79.91, -34.70 90.94 2.00 58




NCC Satellite Simultaneous Nadir Overpasses (SNOs) Prediction Service
